Regional Weather Roundup
Issued by NWS Little Rock, AR

Home | Current Version | Previous Version | Graphics & Text | Print | Product List | Glossary On
Versions: 1 2 3 4 5 6 7 8 9 10 11 12 13 14 15 16 17 18 19 20 21 22 23 24 25 26 27
000
ASUS44 KLZK 021905
RWRLZK

WEATHER ROUNDUP FOR ARKANSAS
NATIONAL WEATHER SERVICE LITTLE ROCK AR
200 PM CDT MON MAY 02 2016

NOTE: "FAIR" INDICATES FEW OR NO CLOUDS BELOW 12,000 FEET WITH NO
SIGNIFICANT WEATHER AND/OR OBSTRUCTIONS TO VISIBILITY.

ARZ001-003-010-029-022000-
NORTHWEST ARKANSAS

CITY           SKY/WX    TMP DP  RH WIND       PRES   REMARKS
FAYETTEVILLE   CLOUDY    55  49  80 W9        30.09R
FORT SMITH     CLOUDY    65  47  52 NW10      30.07F
HARRISON       CLOUDY    55  48  77 S3        30.08F
BENTONVILLE    CLOUDY    54  45  71 NW12      30.10R
ROGERS         CLOUDY    54  47  77 NW10      30.10S
SILOAM SPGS    CLOUDY    54  41  62 N12       30.11R
HIGHFILL       CLOUDY    54  48  80 NW9       30.09R
SPRINGDALE     CLOUDY    55  48  76 NW8       30.10S
$$

ARZ004-005-016-022000-
NORTH CENTRAL ARKANSAS

CITY           SKY/WX    TMP DP  RH WIND       PRES   REMARKS
BATESVILLE     CLOUDY    66  52  59 W8        30.05S
FLIPPIN        CLOUDY   N/A N/A N/A NW7       30.04S
MTN HOME       CLOUDY    58  47  66 VRB6      30.06S
$$

ARZ040-041-022000-
WEST CENTRAL ARKANSAS

CITY           SKY/WX    TMP DP  RH WIND       PRES   REMARKS
MENA           CLOUDY    64  54  68 N6        30.06F
MOUNT IDA      PTSUNNY   66  53  63 NW6       30.02F
$$

ARZ009-017-025-026-028-022000-
NORTHEAST ARKANSAS

CITY           SKY/WX    TMP DP  RH WIND       PRES   REMARKS
CORNING          N/A     66  54  63 W5        30.03F
JONESBORO      CLOUDY    66  53  63 E3        30.01F
NEWPORT        PTSUNNY   65  53  65 N6        30.05F
WALNUT RIDGE   PTSUNNY   64  48  55 CALM      30.03F
BLYTHEVILLE    CLOUDY    66  56  70 N3        30.00F
NW BLYTHEVILLE PTSUNNY   64  54  68 MISG      30.00F
$$

ARZ022-023-033-042-044-022000-
CENTRAL ARKANSAS

CITY           SKY/WX    TMP DP  RH WIND       PRES   REMARKS
LITTLE ROCK    CLOUDY    66  53  63 E6        30.03F
N LITTLE ROCK    N/A     64  54  71 CALM      30.03F
JACKSONVILLE   CLOUDY    65  53  65 VRB1      30.03F
SEARCY         CLOUDY    64  55  72 CALM      30.04F
HOT SPRINGS    PTSUNNY   65  53  65 CALM      30.04F
RUSSELLVILLE   CLOUDY    65  51  60 N5        30.05F
$$

ARZ036-022000-
EAST ARKANSAS

CITY           SKY/WX    TMP DP  RH WIND       PRES   REMARKS
WEST MEMPHIS   CLOUDY    66  57  72 N6        29.99F
$$

ARZ050-053-066-070-073-022000-
SOUTHWEST ARKANSAS

CITY           SKY/WX    TMP DP  RH WIND       PRES   REMARKS
ARKADELPHIA    FAIR      64  61  90 CALM      30.05S
CAMDEN         LGT RAIN  59  55  88 NW5       30.05R
TEXARKANA      CLOUDY    64  54  69 NE6       30.05S
EL DORADO      LGT RAIN  60  58  92 NE7       30.04S
DE QUEEN       CLOUDY    66  55  67 CALM      30.04F
$$

ARZ056-057-069-022000-
SOUTHEAST ARKANSAS

CITY           SKY/WX    TMP DP  RH WIND       PRES   REMARKS
PINE BLUFF     LGT RAIN  62  56  80 N6        30.04F
STUTTGART      CLOUDY    64  54  68 NW3       30.04F
MONTICELLO     LGT RAIN  61  58  90 NW6       30.03F

$$






USA.gov is the U.S. government's official web portal to all federal, state and local government web resources and services.